This is the latest recevied weather packets stored in our database for station/object lu6fg. If no packets are shown the sender has not sent any weather packets the latest 10 day(s).
| Time | Temp. | Humidity | Pressure | Rain* | Wind** | Luminosity | Snow |
|---|---|---|---|---|---|---|---|
| 1777470544 | 17.22° C | 67% | 1012.2 hPa | 0 mm | - | - | - |
| 1777469704 | 17.78° C | 67% | 1012.2 hPa | 0 mm | - | - | - |
| 1777469224 | 17.78° C | 66% | 1012.1 hPa | 0 mm | - | - | - |
| 1777468624 | 17.22° C | 67% | 1012.3 hPa | 0 mm | - | - | - |
| 1777468384 | 17.78° C | 67% | 1012.4 hPa | 0 mm | - | - | - |
| 1777468204 | 17.78° C | 66% | 1012.3 hPa | 0 mm | - | - | - |
| 1777467964 | 17.78° C | 66% | 1012.2 hPa | 0 mm | - | - | - |
| 1777467664 | 17.22° C | 68% | 1012.6 hPa | 0 mm | - | - | - |
| 1777467364 | 16.67° C | 70% | 1012.3 hPa | 0 mm | - | - | - |
| 1777466965 | 15.56° C | 73% | 1012.4 hPa | 0 mm | - | - | - |
| 1777466584 | 15° C | 74% | 1012.4 hPa | 0 mm | - | - | - |
| 1777466524 | 15° C | 74% | 1012.3 hPa | 0 mm | - | - | - |
| 1777466284 | 15° C | 74% | 1012.1 hPa | 0 mm | - | - | - |
| 1777466044 | 15° C | 74% | 1012.2 hPa | 0 mm | - | - | - |
| 1777465504 | 14.44° C | 75% | 1012.6 hPa | 0 mm | - | - | - |
| 1777464904 | 13.89° C | 77% | 1013 hPa | 0 mm | - | - | - |
| 1777464625 | 13.89° C | 77% | 1013.1 hPa | 0 mm | - | - | - |
| 1777464424 | 13.89° C | 76% | 1013.2 hPa | 0 mm | - | - | - |
| 1777463764 | 13.89° C | 77% | 1013 hPa | 0 mm | - | - | - |
| 1777463704 | 13.89° C | 77% | 1013 hPa | 0 mm | - | - | - |
| 1777463644 | 13.89° C | 77% | 1013.1 hPa | 0 mm | - | - | - |
| 1777463464 | 13.89° C | 77% | 1012.9 hPa | 0 mm | - | - | - |
| 1777463404 | 13.89° C | 77% | 1013 hPa | 0 mm | - | - | - |
| 1777462684 | 12.78° C | 80% | 1012.6 hPa | 0 mm | - | - | - |
| 1777462384 | 12.78° C | 80% | 1012.7 hPa | 0 mm | - | - | - |
* Rain latest hour (hover to see other rain measurements)
** Current wind speed in m/s (hover to see current wind gust speed)